Location: Karlsruhe
(49.0131°N, 8.3874°E)
Time: 11:55:57
(UTC+02:00)

ISS - Visible Passes

Search period start: 20 May 2018 00:00
Search period end: 30 May 2018 00:00
Orbit: 402 x 407 km, 51.6° (Epoch: 20 May)

Date Brightness Start Highest point End Pass type
(mag) Time Alt. Az. Time Alt. Az. Time Alt. Az.
20 May -1.6 00:06:25 15° ENE 00:06:25 15° ENE 00:07:07 10° ENE visible
20 May -3.1 01:38:58 27° WNW 01:40:27 54° N 01:43:40 10° ENE visible
20 May -3.5 03:13:55 10° WNW 03:17:11 65° NNE 03:20:26 10° E visible
20 May -3.3 04:50:31 10° W 04:53:34 36° SSW 04:56:36 10° SE visible
20 May -3.4 23:08:43 10° SW 23:11:47 39° SSE 23:14:52 10° ENE visible
21 May -3.4 00:44:56 10° W 00:48:11 64° NNW 00:51:27 10° ENE visible
21 May -3.1 02:21:42 10° WNW 02:24:55 55° N 02:28:09 10° E visible
21 May -3.8 03:58:14 10° WNW 04:01:28 58° SSW 04:04:41 10° SE visible
21 May -2.7 22:17:00 10° SSW 22:19:44 24° SE 22:22:27 10° E visible
21 May -3.8 23:52:41 10° WSW 23:55:57 82° NNW 23:59:14 10° ENE visible
22 May -3.0 01:29:26 10° WNW 01:32:39 51° N 01:35:51 10° E visible
22 May -4.0 03:06:01 10° WNW 03:09:17 85° SSW 03:12:34 10° ESE visible
22 May -2.4 04:43:00 10° W 04:45:25 20° SW 04:47:52 10° S visible
22 May -4.0 23:00:29 10° WSW 23:03:44 71° SSE 23:07:01 10° ENE visible
23 May -3.0 00:37:08 10° W 00:40:20 52° N 00:43:33 10° ENE visible
23 May -3.6 02:13:47 10° WNW 02:17:04 71° NNE 02:20:20 10° E visible
23 May -3.1 03:50:27 10° W 03:53:23 31° SW 03:56:19 10° SSE visible
23 May -3.6 22:08:26 10° SW 22:11:34 46° SSE 22:14:44 10° ENE visible
23 May -3.3 23:44:48 10° W 23:48:03 59° N 23:51:18 10° ENE visible
24 May -3.3 01:21:32 10° WNW 01:24:47 58° N 01:27:49 11° E visible
24 May -2.9 02:58:05 10° WNW 03:00:12 33° W 03:00:12 33° W visible
24 May -3.6 22:52:29 10° WSW 22:55:45 74° NNW 22:59:02 10° ENE visible
25 May -3.0 00:29:15 10° WNW 00:32:28 52° N 00:35:35 11° E visible
25 May -3.2 02:05:49 10° WNW 02:08:10 43° W 02:08:10 43° W visible
25 May -3.9 22:00:14 10° WSW 22:03:30 81° SSE 22:06:47 10° ENE visible
25 May -3.0 23:36:56 10° W 23:40:08 51° N 23:43:21 10° ENE visible
26 May -3.8 01:13:33 10° WNW 01:16:50 78° NNE 01:17:03 73° ENE visible
26 May -3.1 22:44:34 10° W 22:47:47 56° N 22:51:02 10° ENE visible
27 May -3.4 00:21:17 10° WNW 00:24:31 61° NNE 00:26:10 26° E visible
27 May -1.7 01:57:50 10° WNW 01:58:47 17° W 01:58:47 17° W visible
27 May -3.4 21:52:11 10° W 21:55:27 68° NNW 21:58:43 10° ENE visible
27 May -3.1 23:28:57 10° WNW 23:32:11 53° N 23:35:24 10° E visible
28 May -3.3 01:05:30 10° WNW 01:08:01 47° W 01:08:01 47° W visible
28 May -2.9 22:36:35 10° WNW 22:39:48 51° N 22:43:01 10° ENE visible
29 May -3.9 00:13:11 10° WNW 00:16:29 87° NNE 00:17:18 48° ESE visible
29 May -3.5 23:20:53 10° WNW 23:24:09 66° NNE 23:26:37 16° E visible
